Year,Month,Day,Hour,Minute,Value (Times are PST for temperature in C)
2015,05,29,00,00,17.30
2015,05,29,00,01,17.30
2015,05,29,00,02,17.30
2015,05,29,00,03,17.30
2015,05,29,00,04,17.30
2015,05,29,00,05,17.20
2015,05,29,00,06,17.20
2015,05,29,00,07,17.20
2015,05,29,00,08,17.20
2015,05,29,00,09,17.20
2015,05,29,00,10,17.20
2015,05,29,00,11,17.20
2015,05,29,00,12,17.10
2015,05,29,00,13,17.10
2015,05,29,00,14,17.10
2015,05,29,00,15,17.10
2015,05,29,00,16,17.10
2015,05,29,00,17,17.10
2015,05,29,00,18,17.00
2015,05,29,00,19,17.00
2015,05,29,00,20,17.00
2015,05,29,00,21,17.00
2015,05,29,00,22,16.90
2015,05,29,00,23,16.90
2015,05,29,00,24,16.90
2015,05,29,00,25,16.90
2015,05,29,00,26,16.80
2015,05,29,00,27,16.80
2015,05,29,00,28,16.80
2015,05,29,00,29,16.80
2015,05,29,00,30,16.80
2015,05,29,00,31,16.80
2015,05,29,00,32,16.70
2015,05,29,00,33,16.70
2015,05,29,00,34,16.70
2015,05,29,00,35,16.70
2015,05,29,00,36,16.60
2015,05,29,00,37,16.60
2015,05,29,00,38,16.60
2015,05,29,00,39,16.60
2015,05,29,00,40,16.60
2015,05,29,00,41,16.60
2015,05,29,00,42,16.50
2015,05,29,00,43,16.50
2015,05,29,00,44,16.50
2015,05,29,00,45,16.50
2015,05,29,00,46,16.40
2015,05,29,00,47,16.40
2015,05,29,00,48,16.40
2015,05,29,00,49,16.40
2015,05,29,00,50,16.40
2015,05,29,00,51,16.40
2015,05,29,00,52,16.40
2015,05,29,00,53,16.40
2015,05,29,00,54,16.30
2015,05,29,00,55,16.30
2015,05,29,00,56,16.30
2015,05,29,00,57,16.30
2015,05,29,00,58,16.30
2015,05,29,00,59,16.30
2015,05,29,01,00,16.30
2015,05,29,01,01,16.30
2015,05,29,01,02,16.30
2015,05,29,01,03,16.30
2015,05,29,01,04,16.30
2015,05,29,01,05,16.30
2015,05,29,01,06,16.30
2015,05,29,01,07,16.30
2015,05,29,01,08,16.30
2015,05,29,01,09,16.20
2015,05,29,01,10,16.20
2015,05,29,01,11,16.20
2015,05,29,01,12,16.20
2015,05,29,01,13,16.20
2015,05,29,01,14,16.20
2015,05,29,01,15,16.20
2015,05,29,01,16,16.20
2015,05,29,01,17,16.20
2015,05,29,01,18,16.20
2015,05,29,01,19,16.20
2015,05,29,01,20,16.20
2015,05,29,01,21,16.20
2015,05,29,01,22,16.20
2015,05,29,01,23,16.20
2015,05,29,01,24,16.20
2015,05,29,01,25,16.20
2015,05,29,01,26,16.20
2015,05,29,01,27,16.20
2015,05,29,01,28,16.20
2015,05,29,01,29,16.20
2015,05,29,01,30,16.20
2015,05,29,01,31,16.20
2015,05,29,01,32,16.20
2015,05,29,01,33,16.20
2015,05,29,01,34,16.20
2015,05,29,01,35,16.20
2015,05,29,01,36,16.20
2015,05,29,01,37,16.20
2015,05,29,01,38,16.20
2015,05,29,01,39,16.20
2015,05,29,01,40,16.20
2015,05,29,01,41,16.20
2015,05,29,01,42,16.20
2015,05,29,01,43,16.20
2015,05,29,01,44,16.20
2015,05,29,01,45,16.20
2015,05,29,01,46,16.20
2015,05,29,01,47,16.10
2015,05,29,01,48,16.10
2015,05,29,01,49,16.10
2015,05,29,01,50,16.10
2015,05,29,01,51,16.10
2015,05,29,01,52,16.10
2015,05,29,01,53,16.10
2015,05,29,01,54,16.10
2015,05,29,01,55,16.10
2015,05,29,01,56,16.10
2015,05,29,01,57,16.10
2015,05,29,01,58,16.10
2015,05,29,01,59,16.00
2015,05,29,02,00,16.00
2015,05,29,02,01,16.00
2015,05,29,02,02,16.00
2015,05,29,02,03,16.00
2015,05,29,02,04,15.90
2015,05,29,02,05,15.90
2015,05,29,02,06,15.90
2015,05,29,02,07,15.90
2015,05,29,02,08,15.90
2015,05,29,02,09,15.90
2015,05,29,02,10,15.90
2015,05,29,02,11,15.80
2015,05,29,02,12,15.80
2015,05,29,02,13,15.80
2015,05,29,02,14,15.80
2015,05,29,02,15,15.80
2015,05,29,02,16,15.80
2015,05,29,02,17,15.80
2015,05,29,02,18,15.80
2015,05,29,02,19,15.80
2015,05,29,02,20,15.70
2015,05,29,02,21,15.70
2015,05,29,02,22,15.70
2015,05,29,02,23,15.70
2015,05,29,02,24,15.70
2015,05,29,02,25,15.70
2015,05,29,02,26,15.70
2015,05,29,02,27,15.60
2015,05,29,02,28,15.60
2015,05,29,02,29,15.60
2015,05,29,02,30,15.60
2015,05,29,02,31,15.60
2015,05,29,02,32,15.60
2015,05,29,02,33,15.60
2015,05,29,02,34,15.50
2015,05,29,02,35,15.50
2015,05,29,02,36,15.40
2015,05,29,02,37,15.40
2015,05,29,02,38,15.40
2015,05,29,02,39,15.40
2015,05,29,02,40,15.40
2015,05,29,02,41,15.40
2015,05,29,02,42,15.40
2015,05,29,02,43,15.30
2015,05,29,02,44,15.30
2015,05,29,02,45,15.30
2015,05,29,02,46,15.30
2015,05,29,02,47,15.30
2015,05,29,02,48,15.30
2015,05,29,02,49,15.30
2015,05,29,02,50,15.30
2015,05,29,02,51,15.20
2015,05,29,02,52,15.20
2015,05,29,02,53,15.20
2015,05,29,02,54,15.20
2015,05,29,02,55,15.20
2015,05,29,02,56,15.20
2015,05,29,02,57,15.20
2015,05,29,02,58,15.20
2015,05,29,02,59,15.20
2015,05,29,03,00,15.20
2015,05,29,03,01,15.20
2015,05,29,03,02,15.20
2015,05,29,03,03,15.10
2015,05,29,03,04,15.10
2015,05,29,03,05,15.10
2015,05,29,03,06,15.10
2015,05,29,03,07,15.10
2015,05,29,03,08,15.10
2015,05,29,03,09,15.10
2015,05,29,03,10,15.10
2015,05,29,03,11,15.10
2015,05,29,03,12,15.10
2015,05,29,03,13,15.10
2015,05,29,03,14,15.10
2015,05,29,03,15,15.10
2015,05,29,03,16,15.10
2015,05,29,03,17,15.00
2015,05,29,03,18,15.00
2015,05,29,03,19,15.00
2015,05,29,03,20,15.00
2015,05,29,03,21,15.00
2015,05,29,03,22,15.00
2015,05,29,03,23,15.00
2015,05,29,03,24,15.00
2015,05,29,03,25,14.90
2015,05,29,03,26,15.00
2015,05,29,03,27,14.90
2015,05,29,03,28,14.90
2015,05,29,03,29,14.90
2015,05,29,03,30,14.90
2015,05,29,03,31,14.90
2015,05,29,03,32,14.90
2015,05,29,03,33,14.90
2015,05,29,03,34,14.90
2015,05,29,03,35,14.90
2015,05,29,03,36,14.90
2015,05,29,03,37,14.90
2015,05,29,03,38,14.90
2015,05,29,03,39,14.90
2015,05,29,03,40,14.90
2015,05,29,03,41,14.90
2015,05,29,03,42,14.90
2015,05,29,03,43,14.90
2015,05,29,03,44,14.80
2015,05,29,03,45,14.80
2015,05,29,03,46,14.80
2015,05,29,03,47,14.80
2015,05,29,03,48,14.80
2015,05,29,03,49,14.80
2015,05,29,03,50,14.80
2015,05,29,03,51,14.80
2015,05,29,03,52,14.80
2015,05,29,03,53,14.80
2015,05,29,03,54,14.80
2015,05,29,03,55,14.80
2015,05,29,03,56,14.80
2015,05,29,03,57,14.80
2015,05,29,03,58,14.80
2015,05,29,03,59,14.80
2015,05,29,04,00,14.80
2015,05,29,04,01,14.80
2015,05,29,04,02,14.80
2015,05,29,04,03,14.80
2015,05,29,04,04,14.80
2015,05,29,04,05,14.80
2015,05,29,04,06,14.80
2015,05,29,04,07,14.80
2015,05,29,04,08,14.80
2015,05,29,04,09,14.80
2015,05,29,04,10,14.80
2015,05,29,04,11,14.80
2015,05,29,04,12,14.80
2015,05,29,04,13,14.80
2015,05,29,04,14,14.80
2015,05,29,04,15,14.80
2015,05,29,04,16,14.80
2015,05,29,04,17,14.80
2015,05,29,04,18,14.80
2015,05,29,04,19,14.80
2015,05,29,04,20,14.80
2015,05,29,04,21,14.80
2015,05,29,04,22,14.80
2015,05,29,04,23,14.80
2015,05,29,04,24,14.80
2015,05,29,04,25,14.80
2015,05,29,04,26,14.80
2015,05,29,04,27,14.80
2015,05,29,04,28,14.80
2015,05,29,04,29,14.80
2015,05,29,04,30,14.80
2015,05,29,04,31,14.80
2015,05,29,04,32,14.80
2015,05,29,04,33,14.80
2015,05,29,04,34,14.90
2015,05,29,04,35,14.90
2015,05,29,04,36,14.90
2015,05,29,04,37,14.90
2015,05,29,04,38,14.90
2015,05,29,04,39,14.90
2015,05,29,04,40,14.90
2015,05,29,04,41,14.90
2015,05,29,04,42,14.90
2015,05,29,04,43,14.90
2015,05,29,04,44,14.90
2015,05,29,04,45,14.90
2015,05,29,04,46,14.90
2015,05,29,04,47,14.90
2015,05,29,04,48,14.90
2015,05,29,04,49,14.90
2015,05,29,04,50,14.90
2015,05,29,04,51,15.00
2015,05,29,04,52,14.90
2015,05,29,04,53,15.00
2015,05,29,04,54,15.00
2015,05,29,04,55,15.00
2015,05,29,04,56,15.00
2015,05,29,04,57,15.00
2015,05,29,04,58,15.00
2015,05,29,04,59,15.00
2015,05,29,05,00,15.00
2015,05,29,05,01,15.00
2015,05,29,05,02,15.00
2015,05,29,05,03,15.00
2015,05,29,05,04,15.00
2015,05,29,05,05,15.10
2015,05,29,05,06,15.10
2015,05,29,05,07,15.10
2015,05,29,05,08,15.10
2015,05,29,05,09,15.10
2015,05,29,05,10,15.10
2015,05,29,05,11,15.10
2015,05,29,05,12,15.10
2015,05,29,05,13,15.10
2015,05,29,05,14,15.10
2015,05,29,05,15,15.10
2015,05,29,05,16,15.10
2015,05,29,05,17,15.10
2015,05,29,05,18,15.10
2015,05,29,05,19,15.10
2015,05,29,05,20,15.10
2015,05,29,05,21,15.10
2015,05,29,05,22,15.10
2015,05,29,05,23,15.10
2015,05,29,05,24,15.10
2015,05,29,05,25,15.10
2015,05,29,05,26,15.10
2015,05,29,05,27,15.10
2015,05,29,05,28,15.10
2015,05,29,05,29,15.10
2015,05,29,05,30,15.10
2015,05,29,05,31,15.10
2015,05,29,05,32,15.10
2015,05,29,05,33,15.20
2015,05,29,05,34,15.20
2015,05,29,05,35,15.20
2015,05,29,05,36,15.20
2015,05,29,05,37,15.20
2015,05,29,05,38,15.20
2015,05,29,05,39,15.20
2015,05,29,05,40,15.20
2015,05,29,05,41,15.20
2015,05,29,05,42,15.20
2015,05,29,05,43,15.20
2015,05,29,05,44,15.20
2015,05,29,05,45,15.20
2015,05,29,05,46,15.20
2015,05,29,05,47,15.20
2015,05,29,05,48,15.20
2015,05,29,05,49,15.20
2015,05,29,05,50,15.20
2015,05,29,05,51,15.20
2015,05,29,05,52,15.20
2015,05,29,05,53,15.20
2015,05,29,05,54,15.20
2015,05,29,05,55,15.20
2015,05,29,05,56,15.20
2015,05,29,05,57,15.20
2015,05,29,05,58,15.20
2015,05,29,05,59,15.20
2015,05,29,06,00,15.20
2015,05,29,06,01,15.30
2015,05,29,06,02,15.30
2015,05,29,06,03,15.30
2015,05,29,06,04,15.30
2015,05,29,06,05,15.30
2015,05,29,06,06,15.30
2015,05,29,06,07,15.30
2015,05,29,06,08,15.30
2015,05,29,06,09,15.30
2015,05,29,06,10,15.30
2015,05,29,06,11,15.30
2015,05,29,06,12,15.30
2015,05,29,06,13,15.30
2015,05,29,06,14,15.40
2015,05,29,06,15,15.40
2015,05,29,06,16,15.40
2015,05,29,06,17,15.40
2015,05,29,06,18,15.40
2015,05,29,06,19,15.40
2015,05,29,06,20,15.40
2015,05,29,06,21,15.40
2015,05,29,06,22,15.40
2015,05,29,06,23,15.40
2015,05,29,06,24,15.50
2015,05,29,06,25,15.50
2015,05,29,06,26,15.50
2015,05,29,06,27,15.50
2015,05,29,06,28,15.60
2015,05,29,06,29,15.60
2015,05,29,06,30,15.60
2015,05,29,06,31,15.60
2015,05,29,06,32,15.60
2015,05,29,06,33,15.60
2015,05,29,06,34,15.60
2015,05,29,06,35,15.70
2015,05,29,06,36,15.70
2015,05,29,06,37,15.70
2015,05,29,06,38,15.70
2015,05,29,06,39,15.70
2015,05,29,06,40,15.70
2015,05,29,06,41,15.70
2015,05,29,06,42,15.70
2015,05,29,06,43,15.80
2015,05,29,06,44,15.80
2015,05,29,06,45,15.80
2015,05,29,06,46,15.80
2015,05,29,06,47,15.80
2015,05,29,06,48,15.80
2015,05,29,06,49,15.80
2015,05,29,06,50,15.90
2015,05,29,06,51,15.90
2015,05,29,06,52,15.90
2015,05,29,06,53,15.90
2015,05,29,06,54,15.90
2015,05,29,06,55,16.00
2015,05,29,06,56,16.00
2015,05,29,06,57,16.00
2015,05,29,06,58,16.00
2015,05,29,06,59,16.00
2015,05,29,07,00,16.00
2015,05,29,07,01,16.10
2015,05,29,07,02,16.10
2015,05,29,07,03,16.10
2015,05,29,07,04,16.10
2015,05,29,07,05,16.10
2015,05,29,07,06,16.10
2015,05,29,07,07,16.10
2015,05,29,07,08,16.20
2015,05,29,07,09,16.20
2015,05,29,07,10,16.20
2015,05,29,07,11,16.20
2015,05,29,07,12,16.20
2015,05,29,07,13,16.20
2015,05,29,07,14,16.30
2015,05,29,07,15,16.30
2015,05,29,07,16,16.30
2015,05,29,07,17,16.30
2015,05,29,07,18,16.40
2015,05,29,07,19,16.40
2015,05,29,07,20,16.40
2015,05,29,07,21,16.50
2015,05,29,07,22,16.50
2015,05,29,07,23,16.60
2015,05,29,07,24,16.60
2015,05,29,07,25,16.60
2015,05,29,07,26,16.60
2015,05,29,07,27,16.70
2015,05,29,07,28,16.70
2015,05,29,07,29,16.70
2015,05,29,07,30,16.70
2015,05,29,07,31,16.70
2015,05,29,07,32,16.80
2015,05,29,07,33,16.80
2015,05,29,07,34,16.80
2015,05,29,07,35,16.90
2015,05,29,07,36,16.90
2015,05,29,07,37,16.90
2015,05,29,07,38,17.00
2015,05,29,07,39,17.00
2015,05,29,07,40,17.10
2015,05,29,07,41,17.10
2015,05,29,07,42,17.20
2015,05,29,07,43,17.20
2015,05,29,07,44,17.30
2015,05,29,07,45,17.30
2015,05,29,07,46,17.40
2015,05,29,07,47,17.40
2015,05,29,07,48,17.40
2015,05,29,07,49,17.50
2015,05,29,07,50,17.50
2015,05,29,07,51,17.50
2015,05,29,07,52,17.60
2015,05,29,07,53,17.60
2015,05,29,07,54,17.70
2015,05,29,07,55,17.70
2015,05,29,07,56,17.80
2015,05,29,07,57,17.80
2015,05,29,07,58,17.80
2015,05,29,07,59,17.90
2015,05,29,08,00,18.00
2015,05,29,08,01,18.00
2015,05,29,08,02,18.10
2015,05,29,08,03,18.20
2015,05,29,08,04,18.20
2015,05,29,08,05,18.30
2015,05,29,08,06,18.30
2015,05,29,08,07,18.40
2015,05,29,08,08,18.40
2015,05,29,08,09,18.50
2015,05,29,08,10,18.50
2015,05,29,08,11,18.60
2015,05,29,08,12,18.60
2015,05,29,08,13,18.70
2015,05,29,08,14,18.70
2015,05,29,08,15,18.70
2015,05,29,08,16,18.80
2015,05,29,08,17,18.80
2015,05,29,08,18,18.90
2015,05,29,08,19,18.90
2015,05,29,08,20,19.00
2015,05,29,08,21,19.00
2015,05,29,08,22,19.00
2015,05,29,08,23,19.10
2015,05,29,08,24,19.10
2015,05,29,08,25,19.10
2015,05,29,08,26,19.20
2015,05,29,08,27,19.20
2015,05,29,08,28,19.20
2015,05,29,08,29,19.30
2015,05,29,08,30,19.30
2015,05,29,08,31,19.30
2015,05,29,08,32,19.30
2015,05,29,08,33,19.40
2015,05,29,08,34,19.40
2015,05,29,08,35,19.40
2015,05,29,08,36,19.50
2015,05,29,08,37,19.60
2015,05,29,08,38,19.60
2015,05,29,08,39,19.60
2015,05,29,08,40,19.70
2015,05,29,08,41,19.70
2015,05,29,08,42,19.80
2015,05,29,08,43,19.80
2015,05,29,08,44,19.90
2015,05,29,08,45,20.00
2015,05,29,08,46,20.00
2015,05,29,08,47,20.10
2015,05,29,08,48,20.20
2015,05,29,08,49,20.20
2015,05,29,08,50,20.30
2015,05,29,08,51,20.30
2015,05,29,08,52,20.30
2015,05,29,08,53,20.40
2015,05,29,08,54,20.40
2015,05,29,08,55,20.40
2015,05,29,08,56,20.50
2015,05,29,08,57,20.50
2015,05,29,08,58,20.60
2015,05,29,08,59,20.60
2015,05,29,09,00,20.70
2015,05,29,09,01,20.70
2015,05,29,09,02,20.70
2015,05,29,09,03,20.70
2015,05,29,09,04,20.80
2015,05,29,09,05,20.80
2015,05,29,09,06,20.90
2015,05,29,09,07,20.90
2015,05,29,09,08,20.90
2015,05,29,09,09,21.00
2015,05,29,09,10,21.00
2015,05,29,09,11,21.10
2015,05,29,09,12,21.10
2015,05,29,09,13,21.10
2015,05,29,09,14,21.10
2015,05,29,09,15,21.10
2015,05,29,09,16,21.10
2015,05,29,09,17,21.20
2015,05,29,09,18,21.20
2015,05,29,09,19,21.30
2015,05,29,09,20,21.30
2015,05,29,09,21,21.30
2015,05,29,09,22,21.40
2015,05,29,09,23,21.40
2015,05,29,09,24,21.50
2015,05,29,09,25,21.50
2015,05,29,09,26,21.60
2015,05,29,09,27,21.70
2015,05,29,09,28,21.70
2015,05,29,09,29,21.70
2015,05,29,09,30,21.70
2015,05,29,09,31,21.70
2015,05,29,09,32,21.60
2015,05,29,09,33,21.70
2015,05,29,09,34,21.70
2015,05,29,09,35,21.80
2015,05,29,09,36,21.80
2015,05,29,09,37,21.80
2015,05,29,09,38,21.80
2015,05,29,09,39,21.80
2015,05,29,09,40,21.80
2015,05,29,09,41,21.80
2015,05,29,09,42,21.90
2015,05,29,09,43,22.00
2015,05,29,09,44,22.00
2015,05,29,09,45,22.10
2015,05,29,09,46,22.20
2015,05,29,09,47,22.20
2015,05,29,09,48,22.30
2015,05,29,09,49,22.30
2015,05,29,09,50,22.30
2015,05,29,09,51,22.30
2015,05,29,09,52,22.40
2015,05,29,09,53,22.50
2015,05,29,09,54,22.60
2015,05,29,09,55,22.70
2015,05,29,09,56,22.70
2015,05,29,09,57,22.70
2015,05,29,09,58,22.70
2015,05,29,09,59,22.80
2015,05,29,10,00,22.80
2015,05,29,10,01,22.80
2015,05,29,10,02,22.80
2015,05,29,10,03,22.90
2015,05,29,10,04,22.90
2015,05,29,10,05,22.90
2015,05,29,10,06,22.90
2015,05,29,10,07,22.90
2015,05,29,10,08,23.00
2015,05,29,10,09,23.00
2015,05,29,10,10,23.00
2015,05,29,10,11,23.00
2015,05,29,10,12,23.00
2015,05,29,10,13,23.00
2015,05,29,10,14,23.00
2015,05,29,10,15,23.10
2015,05,29,10,16,23.10
2015,05,29,10,17,23.10
2015,05,29,10,18,23.10
2015,05,29,10,19,23.10
2015,05,29,10,20,23.00
2015,05,29,10,21,23.00
2015,05,29,10,22,23.00
2015,05,29,10,23,23.00
2015,05,29,10,24,22.90
2015,05,29,10,25,22.90
2015,05,29,10,26,22.90
2015,05,29,10,27,23.00
2015,05,29,10,28,23.00
2015,05,29,10,29,23.10
2015,05,29,10,30,23.10
2015,05,29,10,31,23.10
2015,05,29,10,32,23.20
2015,05,29,10,33,23.20
2015,05,29,10,34,23.30
2015,05,29,10,35,23.30
2015,05,29,10,36,23.40
2015,05,29,10,37,23.40
2015,05,29,10,38,23.40
2015,05,29,10,39,23.50
2015,05,29,10,40,23.50
2015,05,29,10,41,23.50
2015,05,29,10,42,23.50
2015,05,29,10,43,23.50
2015,05,29,10,44,23.60
2015,05,29,10,45,23.60
2015,05,29,10,46,23.60
2015,05,29,10,47,23.60
2015,05,29,10,48,23.60
2015,05,29,10,49,23.70
2015,05,29,10,50,23.70
2015,05,29,10,51,23.70
2015,05,29,10,52,23.80
2015,05,29,10,53,23.80
2015,05,29,10,54,23.70
2015,05,29,10,55,23.80
2015,05,29,10,56,23.80
2015,05,29,10,57,23.90
2015,05,29,10,58,23.90
2015,05,29,10,59,24.00
2015,05,29,11,00,24.00
2015,05,29,11,01,24.10
2015,05,29,11,02,24.10
2015,05,29,11,03,24.10
2015,05,29,11,04,24.10
2015,05,29,11,05,24.10
2015,05,29,11,06,24.10
2015,05,29,11,07,24.10
2015,05,29,11,08,24.10
2015,05,29,11,09,24.20
2015,05,29,11,10,24.20
2015,05,29,11,11,24.30
2015,05,29,11,12,24.30
2015,05,29,11,13,24.30
2015,05,29,11,14,24.30
2015,05,29,11,15,24.30
2015,05,29,11,16,24.30
2015,05,29,11,17,24.40
2015,05,29,11,18,24.40
2015,05,29,11,19,24.40
2015,05,29,11,20,24.40
2015,05,29,11,21,24.40
2015,05,29,11,22,24.50
2015,05,29,11,23,24.50
2015,05,29,11,24,24.60
2015,05,29,11,25,24.60
2015,05,29,11,26,24.60
2015,05,29,11,27,24.60
2015,05,29,11,28,24.60
2015,05,29,11,29,24.60
2015,05,29,11,30,24.60
2015,05,29,11,31,24.60
2015,05,29,11,32,24.60
2015,05,29,11,33,24.60
2015,05,29,11,34,24.60
2015,05,29,11,35,24.70
2015,05,29,11,36,24.70
2015,05,29,11,37,24.60
2015,05,29,11,38,24.50
2015,05,29,11,39,24.40
2015,05,29,11,40,24.40
2015,05,29,11,41,24.40
2015,05,29,11,42,24.30
2015,05,29,11,43,24.30
2015,05,29,11,44,24.20
2015,05,29,11,45,24.20
2015,05,29,11,46,24.30
2015,05,29,11,47,24.30
2015,05,29,11,48,24.30
2015,05,29,11,49,24.30
2015,05,29,11,50,24.30
2015,05,29,11,51,24.30
2015,05,29,11,52,24.40
2015,05,29,11,53,24.40
2015,05,29,11,54,24.50
2015,05,29,11,55,24.60
2015,05,29,11,56,24.60
2015,05,29,11,57,24.60
2015,05,29,11,58,24.70
2015,05,29,11,59,24.60
2015,05,29,12,00,24.60
2015,05,29,12,01,24.60
2015,05,29,12,02,24.60
2015,05,29,12,03,24.50
2015,05,29,12,04,24.50
2015,05,29,12,05,24.50
2015,05,29,12,06,24.50
2015,05,29,12,07,24.40
2015,05,29,12,08,24.50
2015,05,29,12,09,24.50
2015,05,29,12,10,24.50
2015,05,29,12,11,24.60
2015,05,29,12,12,24.60
2015,05,29,12,13,24.50
2015,05,29,12,14,24.40
2015,05,29,12,15,24.30
2015,05,29,12,16,24.30
2015,05,29,12,17,24.20
2015,05,29,12,18,24.20
2015,05,29,12,19,24.20
2015,05,29,12,20,24.20
2015,05,29,12,21,24.20
2015,05,29,12,22,24.20
2015,05,29,12,23,24.20
2015,05,29,12,24,24.30
2015,05,29,12,25,24.30
2015,05,29,12,26,24.30
2015,05,29,12,27,24.30
2015,05,29,12,28,24.30
2015,05,29,12,29,24.30
2015,05,29,12,30,24.30
2015,05,29,12,31,24.30
2015,05,29,12,32,24.40
2015,05,29,12,33,24.40
2015,05,29,12,34,24.40
2015,05,29,12,35,24.40
2015,05,29,12,36,24.50
2015,05,29,12,37,24.60
2015,05,29,12,38,24.60
2015,05,29,12,39,24.70
2015,05,29,12,40,24.70
2015,05,29,12,41,24.70
2015,05,29,12,42,24.70
2015,05,29,12,43,24.70
2015,05,29,12,44,24.70
2015,05,29,12,45,24.70
2015,05,29,12,46,24.60
2015,05,29,12,47,24.60
2015,05,29,12,48,24.70
2015,05,29,12,49,24.70
2015,05,29,12,50,24.70
2015,05,29,12,51,24.70
2015,05,29,12,52,24.80
2015,05,29,12,53,24.90
2015,05,29,12,54,24.90
2015,05,29,12,55,25.00
2015,05,29,12,56,25.10
2015,05,29,12,57,25.10
2015,05,29,12,58,25.20
2015,05,29,12,59,25.20
2015,05,29,13,00,25.20
2015,05,29,13,01,25.20
2015,05,29,13,02,25.30
2015,05,29,13,03,25.30
2015,05,29,13,04,25.40
2015,05,29,13,05,25.40
2015,05,29,13,06,25.40
2015,05,29,13,07,25.40
2015,05,29,13,08,25.30
2015,05,29,13,09,25.30
2015,05,29,13,10,25.30
2015,05,29,13,11,25.30
2015,05,29,13,12,25.30
2015,05,29,13,13,25.20
2015,05,29,13,14,25.20
2015,05,29,13,15,25.20
2015,05,29,13,16,25.20
2015,05,29,13,17,25.20
2015,05,29,13,18,25.20
2015,05,29,13,19,25.20
2015,05,29,13,20,25.20
2015,05,29,13,21,25.20
2015,05,29,13,22,25.30
2015,05,29,13,23,25.30
2015,05,29,13,24,25.30
2015,05,29,13,25,25.30
2015,05,29,13,26,25.40
2015,05,29,13,27,25.30
2015,05,29,13,28,25.30
2015,05,29,13,29,25.30
2015,05,29,13,30,25.30
2015,05,29,13,31,25.20
2015,05,29,13,32,25.20
2015,05,29,13,33,25.20
2015,05,29,13,34,25.20
2015,05,29,13,35,25.30
2015,05,29,13,36,25.30
2015,05,29,13,37,25.30
2015,05,29,13,38,25.30
2015,05,29,13,39,25.20
2015,05,29,13,40,25.20
2015,05,29,13,41,25.20
2015,05,29,13,42,25.20
2015,05,29,13,43,25.20
2015,05,29,13,44,25.20
2015,05,29,13,45,25.20
2015,05,29,13,46,25.30
2015,05,29,13,47,25.30
2015,05,29,13,48,25.40
2015,05,29,13,49,25.50
2015,05,29,13,50,25.60
2015,05,29,13,51,25.60
2015,05,29,13,52,25.70
2015,05,29,13,53,25.70
2015,05,29,13,54,25.70
2015,05,29,13,55,25.80
2015,05,29,13,56,25.80
2015,05,29,13,57,25.80
2015,05,29,13,58,25.80
2015,05,29,13,59,25.70
2015,05,29,14,00,25.70
2015,05,29,14,01,25.70
2015,05,29,14,02,25.70
2015,05,29,14,03,25.70
2015,05,29,14,04,25.70
2015,05,29,14,05,25.70
2015,05,29,14,06,25.70
2015,05,29,14,07,25.60
2015,05,29,14,08,25.60
2015,05,29,14,09,25.70
2015,05,29,14,10,25.70
2015,05,29,14,11,25.70
2015,05,29,14,12,25.70
2015,05,29,14,13,25.80
2015,05,29,14,14,25.80
2015,05,29,14,15,25.90
2015,05,29,14,16,26.00
2015,05,29,14,17,26.00
2015,05,29,14,18,26.10
2015,05,29,14,19,26.10
2015,05,29,14,20,26.10
2015,05,29,14,21,26.10
2015,05,29,14,22,26.10
2015,05,29,14,23,26.10
2015,05,29,14,24,26.00
2015,05,29,14,25,26.00
2015,05,29,14,26,26.10
2015,05,29,14,27,26.10
2015,05,29,14,28,26.10
2015,05,29,14,29,26.20
2015,05,29,14,30,26.20
2015,05,29,14,31,26.20
2015,05,29,14,32,26.30
2015,05,29,14,33,26.30
2015,05,29,14,34,26.40
2015,05,29,14,35,26.50
2015,05,29,14,36,26.60
2015,05,29,14,37,26.60
2015,05,29,14,38,26.70
2015,05,29,14,39,26.80
2015,05,29,14,40,26.80
2015,05,29,14,41,26.90
2015,05,29,14,42,26.90
2015,05,29,14,43,26.90
2015,05,29,14,44,26.90
2015,05,29,14,45,26.90
2015,05,29,14,46,26.90
2015,05,29,14,47,26.90
2015,05,29,14,48,26.90
2015,05,29,14,49,26.90
2015,05,29,14,50,27.00
2015,05,29,14,51,27.00
2015,05,29,14,52,27.00
2015,05,29,14,53,27.00
2015,05,29,14,54,27.00
2015,05,29,14,55,27.00
2015,05,29,14,56,26.90
2015,05,29,14,57,26.90
2015,05,29,14,58,26.90
2015,05,29,14,59,26.80
2015,05,29,15,00,26.80
2015,05,29,15,01,26.80
2015,05,29,15,02,26.70
2015,05,29,15,03,26.70
2015,05,29,15,04,26.80
2015,05,29,15,05,26.80
2015,05,29,15,06,26.80
2015,05,29,15,07,26.90
2015,05,29,15,08,26.90
2015,05,29,15,09,26.90
2015,05,29,15,10,27.00
2015,05,29,15,11,26.90
2015,05,29,15,12,26.90
2015,05,29,15,13,26.90
2015,05,29,15,14,26.90
2015,05,29,15,15,26.90
2015,05,29,15,16,26.90
2015,05,29,15,17,26.90
2015,05,29,15,18,26.90
2015,05,29,15,19,26.90
2015,05,29,15,20,26.90
2015,05,29,15,21,26.90
2015,05,29,15,22,26.90
2015,05,29,15,23,26.90
2015,05,29,15,24,26.90
2015,05,29,15,25,26.90
2015,05,29,15,26,27.00
2015,05,29,15,27,27.00
2015,05,29,15,28,27.10
2015,05,29,15,29,27.10
2015,05,29,15,30,27.10
2015,05,29,15,31,27.10
2015,05,29,15,32,27.10
2015,05,29,15,33,27.10
2015,05,29,15,34,27.10
2015,05,29,15,35,27.10
2015,05,29,15,36,27.10
2015,05,29,15,37,27.10
2015,05,29,15,38,27.10
2015,05,29,15,39,27.00
2015,05,29,15,40,27.00
2015,05,29,15,41,27.00
2015,05,29,15,42,27.00
2015,05,29,15,43,27.00
2015,05,29,15,44,27.10
2015,05,29,15,45,27.10
2015,05,29,15,46,27.10
2015,05,29,15,47,27.10
2015,05,29,15,48,27.00
2015,05,29,15,49,27.00
2015,05,29,15,50,27.00
2015,05,29,15,51,27.10
2015,05,29,15,52,27.10
2015,05,29,15,53,27.10
2015,05,29,15,54,27.10
2015,05,29,15,55,27.10
2015,05,29,15,56,27.10
2015,05,29,15,57,27.10
2015,05,29,15,58,27.00
2015,05,29,15,59,27.00
2015,05,29,16,00,27.00
2015,05,29,16,01,26.90
2015,05,29,16,02,26.90
2015,05,29,16,03,26.90
2015,05,29,16,04,26.90
2015,05,29,16,05,26.90
2015,05,29,16,06,26.90
2015,05,29,16,07,26.80
2015,05,29,16,08,26.80
2015,05,29,16,09,26.70
2015,05,29,16,10,26.70
2015,05,29,16,11,26.70
2015,05,29,16,12,26.70
2015,05,29,16,13,26.70
2015,05,29,16,14,26.70
2015,05,29,16,15,26.70
2015,05,29,16,16,26.80
2015,05,29,16,17,26.80
2015,05,29,16,18,26.80
2015,05,29,16,19,26.80
2015,05,29,16,20,26.80
2015,05,29,16,21,26.90
2015,05,29,16,22,26.90
2015,05,29,16,23,27.00
2015,05,29,16,24,27.00
2015,05,29,16,25,27.00
2015,05,29,16,26,27.00
2015,05,29,16,27,26.90
2015,05,29,16,28,26.90
2015,05,29,16,29,26.80
2015,05,29,16,30,26.90
2015,05,29,16,31,26.90
2015,05,29,16,32,26.90
2015,05,29,16,33,26.90
2015,05,29,16,34,26.90
2015,05,29,16,35,26.90
2015,05,29,16,36,26.90
2015,05,29,16,37,26.90
2015,05,29,16,38,26.90
2015,05,29,16,39,26.90
2015,05,29,16,40,26.90
2015,05,29,16,41,26.90
2015,05,29,16,42,26.90
2015,05,29,16,43,26.90
2015,05,29,16,44,26.90
2015,05,29,16,45,26.90
2015,05,29,16,46,26.90
2015,05,29,16,47,26.90
2015,05,29,16,48,26.90
2015,05,29,16,49,26.90
2015,05,29,16,50,27.00
2015,05,29,16,51,27.00
2015,05,29,16,52,27.00
2015,05,29,16,53,27.10
2015,05,29,16,54,27.10
2015,05,29,16,55,27.10
2015,05,29,16,56,27.10
2015,05,29,16,57,27.10
2015,05,29,16,58,27.10
2015,05,29,16,59,27.10
2015,05,29,17,00,27.10
2015,05,29,17,01,27.10
2015,05,29,17,02,27.10
2015,05,29,17,03,27.10
2015,05,29,17,04,27.10
2015,05,29,17,05,27.20
2015,05,29,17,06,27.20
2015,05,29,17,07,27.20
2015,05,29,17,08,27.10
2015,05,29,17,09,27.10
2015,05,29,17,10,27.10
2015,05,29,17,11,27.00
2015,05,29,17,12,27.00
2015,05,29,17,13,27.00
2015,05,29,17,14,26.90
2015,05,29,17,15,26.90
2015,05,29,17,16,26.90
2015,05,29,17,17,26.90
2015,05,29,17,18,26.90
2015,05,29,17,19,26.90